OBJECT J (43766 NORAD) Tracking and Keplerian Element Data

This shows tracking and keplerian element data for the satellite.

Feedback or suggestion? Click here.




ElementValue
Catalog43766
NameOBJECT J
Epoch Orbit882
Epoch Day31.80723655
Epoch Year2019
RAAN105.3127
Inclination97.76
Eccentricity0.0012769
Argument of Perigee67.9953
Mean Anonmoly292.2622
Mean Motion14.94444767
Decay Rate5.63E-06
L11 43766U 18099J 19031.80723655 .00000563 00000-0 57528-4 0 9998
L22 43766 97.7600 105.3127 0012769 67.9953 292.2622 14.94444767 8823

Live tracking and technical data element details for OBJECT J (NORAD 43766). OBJECT J can be tracked NOW for your location showing map with azimuth and elevation plus other details from your city location.

Track the satellite on the map from your city or location and see movement details for azimuth, elevation, latitude, longitude, range, height, and movement on the map or in text.







IsCatalogInMostPopularTable: catalog: 43766, numindb: 31
Update: records affected: 1



GetName: 43766 OBJECT J

Hit Count: updated at: Wed, 24 Apr 2019 18:49:54 GMT